MONITOR-2 (RS39S)

Last updated on Sun Aug 09 2026 00:03:15 GMT+0000 (Coordinated Universal Time)

1 57184U 23091U 26220.61247897 .00002154 00000+0 10514-3 0 9991 2 57184 97.5037 278.5603 0009393 293.0721 66.9523 15.19343358171919
UTC large
Height (km)
Speed (km/s)
/
Latitude / Longitude
Inclination (degrees)
Orbital Period (minutes)
Azimuth
Elevation
Range (km)
Doppler Factor

Next 0 passes for location: London (51.5072 / 0.1276)

No passes found over London.
MONITOR-2 (RS39S)